Location: Alpha Ridge Park
(39.3209°N, 76.9128°W)
Time: 10:47:58
(UTC-04:00)

S-56A Canister/Altair - Pass Details

Date: 22 May 2019
Orbit: 633 x 2499 km, 38.9° (Epoch: 25 June)

Event Time Altitude Azimuth Distance (km) Brightness Sun altitude
Rises 10:56:34 0° 277° (W) 5,544 11.6 56.7°
Reaches altitude 10° 11:02:12 10° 258° (WSW) 4,829 11.4 57.7°
Maximum altitude 11:09:10 16° 228° (SW) 4,589 11.6 58.9°
Drops below altitude 10° 11:16:37 10° 197° (SSW) 5,153 12.0 60.2°
Sets 11:23:09 0° 179° (S) 6,108 12.3 61.2°
